Location: Gammelsbach
(49.5261°N, 8.9630°E)
Time: 04:02:21
(UTC+00:00)

Okean O Rocket - Pass Details

Date: 17 June 2025
Orbit: 615 x 635 km, 98.0° (Epoch: 12 July)

Event Time Altitude Azimuth Distance (km) Brightness Sun altitude
Rises 21:04:51 0° 209° (SSW) 2,875 4.7 -10.7°
Reaches altitude 10° 21:07:45 10° 231° (SW) 1,976 4.1 -10.9°
Maximum altitude 21:10:28 16° 270° (W) 1,605 4.1 -11.2°
Drops below altitude 10° 21:13:12 10° 310° (NW) 1,988 5.4 -11.4°
Sets 21:16:09 0° 331° (NNW) 2,902 7.2 -11.6°
